Regional Weather Roundup
Issued by NWS

Home | Current Version | Previous Version | Text Only | Print | Product List | Glossary On
Versions: 1 2 3 4 5 6 7 8 9 10 11 12 13 14 15 16 17 18 19 20 21 22 23 24 25 26 27 28 29 30 31 32 33 34 35 36 37 38 39 40 41 42 43 44 45 46 47 48 49 50
000
ASUS43 KBIS 241910
RWRND

NORTH DAKOTA REGIONAL WEATHER ROUNDUP
NATIONAL WEATHER SERVICE BISMARCK ND
100 PM CST FRI FEB 24 2017

NOTE: "FAIR" INDICATES FEW OR NO CLOUDS BELOW 12,000 FEET WITH NO
SIGNIFICANT WEATHER AND/OR OBSTRUCTIONS TO VISIBILITY.


NDZ001>003-009>011-017-242000-
NORTHWEST NORTH DAKOTA

CITY           SKY/WX    TMP DP  RH WIND       PRES   REMARKS
WILLISTON      CLOUDY    26  15  63 S8        30.14F WCI  18
MINOT          FAIR      28  12  51 VRB5      30.13F
$$

NDZ018>021-031>035-040>046-242000-
SOUTHWEST NORTH DAKOTA

CITY           SKY/WX    TMP DP  RH WIND       PRES   REMARKS
BISMARCK       FAIR      30  17  58 NW9       30.14F
DICKINSON      CLOUDY    22  10  60 CALM      30.09F
GARRISON         N/A     27  19  72 W8        30.13F WCI  19
HETTINGER ARPT CLOUDY    25  12  58 NW3       30.11F
$$

NDZ004>008-012>016-024-026-027-054-242000-
NORTHEAST NORTH DAKOTA

CITY           SKY/WX    TMP DP  RH WIND       PRES   REMARKS
GRAND FORKS    PTSUNNY   21   9  59 N16       30.13F WCI   7
GRND FRKS AFB  FLURRIES  21  12  68 N14       30.13F WCI   8
DEVILS LAKE    CLOUDY    19  13  77 N9        30.12F WCI   8
$$

NDZ022-023-025-028>030-036>039-047>053-242000-
SOUTHEAST NORTH DAKOTA

CITY           SKY/WX    TMP DP  RH WIND       PRES   REMARKS
FARGO          PTSUNNY   25  16  68 N20       30.08F WCI  11
JAMESTOWN      PTSUNNY   23  17  78 N18G24    30.08F WCI   9
$$





USA.gov is the U.S. government's official web portal to all federal, state and local government web resources and services.